This demonstration page uses our WeatherBlox Daily Observations layout. Learn more.

Left ArrowRight Arrow

39.08367, -84.50855

Hourly Observations for May 14, 2019

Temp ( °F °C ) Dew Point ( °F °C ) Humidity (%) Winds ( mph kmh ) Pressure ( in mb ) Visibility ( mi km ) Precip ( " mm )
12:53 am 00:53 Cloudy 52 11.1 46 7.8 80 80 W 3 6 30.01 1016 10 16 N/A
1:53 am 01:53 Clear 47 8.3 45 7.2 93 93 N N/A 30.00 1016 9 14 N/A
2:27 am 02:27 Clear with Mist and Fog 46 7.8 45 7.2 96 96 N N/A 30.01 1016 2 3 N/A
2:37 am 02:37 Clear with Mist and Fog 46 7.8 44 6.7 93 93 N N/A 30.01 1016 4 6 N/A
2:45 am 02:45 Clear with Mist and Fog 46 7.8 44 6.7 93 93 N N/A 30.01 1016 2 3 N/A
2:53 am 02:53 Clear with Mist and Fog 44 6.7 43 6.1 96 96 N N/A 30.01 1016 1 1 N/A
3:08 am 03:08 Mostly Cloudy with Fog 44 6.7 43 6.1 96 96 N N/A 30.01 1016 0 0 N/A
3:36 am 03:36 Mostly Cloudy with Mist and Fog 43 6.1 42 5.6 97 97 N N/A 30.03 1017 1 1 N/A
3:53 am 03:53 Mostly Cloudy with Mist and Fog 44 6.7 43 6.1 96 96 VRB 3 6 30.01 1016 1 1 N/A
4:07 am 04:07 Partly Cloudy with Fog 43 6.1 41 5 93 93 N N/A 30.03 1017 0 0 N/A
4:15 am 04:15 Partly Cloudy with Fog 42 5.6 41 5 96 96 ENE 5 7 30.03 1017 1 1 N/A
4:30 am 04:30 Mostly Clear with Mist and Fog 42 5.6 41 5 96 96 VRB 3 6 30.04 1017 3 4 N/A
4:37 am 04:37 Mostly Clear with Mist and Fog 44 6.7 42 5.6 93 93 VRB 3 6 30.03 1017 4 6 N/A
4:39 am 04:39 Mostly Clear with Mist and Fog 43 6.1 42 5.6 97 97 N N/A 30.04 1017 2 3 N/A
4:42 am 04:42 Mostly Cloudy with Mist and Fog 43 6.1 43 6.1 100 100 N N/A 30.04 1017 1 1 N/A
4:53 am 04:53 Mostly Cloudy with Fog 42 5.6 41 5 96 96 N N/A 30.02 1017 1 1 N/A
5:04 am 05:04 Mostly Cloudy with Fog 42 5.6 40 4.4 92 92 N N/A 30.04 1017 0 0 N/A
5:34 am 05:34 Cloudy with Fog 41 5 40 4.4 96 96 N N/A 30.05 1018 1 1 N/A
5:53 am 05:53 Cloudy with Mist and Fog 42 5.6 41 5 96 96 N N/A 30.04 1017 2 2 N/A
6:00 am 06:00 Mostly Cloudy with Fog 42 5.6 41 5 96 96 N N/A 30.06 1018 0 0 N/A
6:53 am 06:53 Mostly Cloudy with Fog 45 7.2 44 6.7 97 97 VRB 3 6 30.05 1018 5 8 N/A
7:53 am 07:53 Mostly Cloudy with Fog 46 7.8 45 7.2 96 96 N N/A 30.07 1018 5 8 N/A
8:41 am 08:41 Cloudy with Mist and Fog 48 8.9 47 8.3 96 96 VRB 3 6 30.10 1019 1 2 N/A
8:53 am 08:53 Mostly Cloudy with Mist and Fog 49 9.4 48 8.9 97 97 N N/A 30.09 1019 3 5 N/A
9:05 am 09:05 Sunny with Mist and Fog 49 9.4 48 8.9 97 97 N N/A 30.10 1019 5 8 N/A
9:53 am 09:53 Sunny 56 13.3 48 8.9 75 75 N N/A 30.09 1019 7 11 N/A
10:53 am 10:53 Mostly Sunny 60 15.6 44 6.7 56 56 W 3 6 30.09 1019 10 16 N/A
11:53 am 11:53 Sunny 62 16.7 41 5 46 46 SW 5 7 30.08 1019 10 16 N/A
12:53 pm 12:53 Mostly Cloudy 64 17.8 40 4.4 41 41 N N/A 30.07 1018 10 16 N/A
1:53 pm 13:53 Mostly Sunny 64 17.8 39 3.9 40 40 N N/A 30.05 1018 10 16 N/A
2:53 pm 14:53 Mostly Sunny 66 18.9 40 4.4 39 39 SE 6 9 30.05 1018 10 16 N/A
3:53 pm 15:53 Mostly Cloudy 66 18.9 40 4.4 39 39 VRB 3 6 30.03 1017 10 16 N/A
4:53 pm 16:53 Partly Cloudy 66 18.9 41 5 40 40 S 8 13 30.01 1016 10 16 N/A
5:53 pm 17:53 Partly Cloudy 66 18.9 40 4.4 39 39 SSE 5 7 30.01 1016 10 16 N/A
6:53 pm 18:53 Cloudy 67 19.4 40 4.4 37 37 VRB 3 6 30.01 1016 10 16 N/A
7:53 pm 19:53 Sunny 63 17.2 42 5.6 47 47 WSW 7 11 30.01 1016 10 16 N/A
8:53 pm 20:53 Clear 59 15 45 7.2 60 60 N N/A 30.02 1017 10 16 N/A
9:53 pm 21:53 Clear 54 12.2 46 7.8 75 75 N N/A 30.03 1017 10 16 N/A
10:53 pm 22:53 Clear 51 10.6 45 7.2 80 80 N N/A 30.04 1017 10 16 N/A
11:53 pm 23:53 Clear 49 9.4 45 7.2 86 86 N N/A 30.04 1017 10 16 N/A

Powered by AerisWeather